FW2380 Weather Reports


Display with metric or nautical units.
time (UTC)temp
F
wind
direction
speed
MPH
gust
MPH
rain 1hr
in
rain 24hr
in
rain mn
in
humidity
%
barometer
mb
20260506194552 78 299 1.0 10.0 0.00 0.00 0.00 40 1010.1
20260506193050 78 194 2.0 8.0 0.00 0.00 0.00 39 1010.3
20260506191539 77 303 1.0 5.0 0.00 0.00 0.00 41 1010.6
20260506190037 76 215 1.0 4.0 0.00 0.00 0.00 40 1010.7
20260506184531 75 67 0.0 4.0 0.00 0.00 0.00 41 1011.0
20260506183027 74 339 0.0 0.0 0.00 0.00 0.00 39 1011.0
20260506181521 72 109 0.0 3.0 0.00 0.00 0.00 41 1011.0
20260506180017 70 83 0.0 0.0 0.00 0.00 0.00 42 1011.2
20260506174512 69 355 0.0 0.0 0.00 0.00 0.00 43 1011.3
20260506173008 68 76 0.0 0.0 0.00 0.00 0.00 43 1011.7
20260506171504 66 146 0.0 6.0 0.00 0.00 0.00 46 1011.8
20260506170110 65 107 0.0 6.0 0.00 0.00 0.00 46 1012.0
20260506164555 63 69 0.0 0.0 0.00 0.00 0.00 47 1012.1
20260506163050 61 135 1.0 7.0 0.00 0.00 0.00 49 1012.1
20260506161546 59 161 0.0 0.0 0.00 0.00 0.00 51 1012.4
20260506160048 58 190 0.0 0.0 0.00 0.00 0.00 55 1012.2
20260506154537 56 165 0.0 0.0 0.00 0.00 0.00 57 1012.2
20260506153032 55 165 0.0 0.0 0.00 0.00 0.00 58 1012.4
20260506151530 54 166 0.0 0.0 0.00 0.00 0.00 58 1012.4
20260506150025 52 189 0.0 0.0 0.00 0.00 0.00 48 1012.5
20260506144521 50 191 0.0 1.0 0.00 0.00 0.00 1 1012.5
20260506143015 50 191 0.0 0.0 0.00 0.00 0.00 1 1012.5
20260506141511 48 191 0.0 0.0 0.00 0.00 0.00 1 1012.6
20260506140007 47 191 0.0 0.0 0.00 0.00 0.00 1 1012.5
20260506134502 45 191 0.0 0.0 0.00 0.00 0.00 1 1012.5
20260506133113 44 191 0.0 0.0 0.00 0.00 0.00 1 1012.4
20260506131601 44 191 0.0 0.0 0.00 0.00 0.00 1 1012.4
20260506130054 43 191 0.0 0.0 0.00 0.00 0.00 1 1012.1
20260506124546 43 191 0.0 0.0 0.00 0.00 0.00 1 1012.0
20260506123041 43 191 0.0 0.0 0.00 0.00 0.00 1 1011.9
20260506121536 44 191 0.0 0.0 0.00 0.00 0.00 1 1011.7
20260506120034 44 191 0.0 0.0 0.00 0.00 0.00 3 1011.7
20260506114528 44 191 0.0 0.0 0.00 0.00 0.00 5 1011.6
20260506113024 45 191 0.0 0.0 0.00 0.00 0.00 8 1011.4
20260506111518 45 191 0.0 0.0 0.00 0.00 0.00 9 1011.4
20260506110015 45 191 0.0 0.0 0.00 0.00 0.00 13 1011.4
20260506104511 45 191 0.0 0.0 0.00 0.00 0.00 18 1011.2
20260506103008 46 191 0.0 0.0 0.00 0.00 0.00 24 1011.2
20260506101506 46 191 0.0 0.0 0.00 0.00 0.00 31 1011.2
20260506100002 46 191 0.0 0.0 0.00 0.00 0.00 36 1011.1
20260506094624 47 191 0.0 0.0 0.00 0.00 0.00 39 1011.1
20260506093058 47 191 0.0 0.0 0.00 0.00 0.00 43 1011.1
20260506091557 48 191 0.0 0.0 0.00 0.00 0.00 43 1011.1
20260506090054 48 191 0.0 0.0 0.00 0.00 0.00 45 1010.9
20260506084551 48 191 0.0 0.0 0.00 0.00 0.00 48 1010.8
20260506083049 49 191 0.0 0.0 0.00 0.00 0.00 50 1010.8
20260506081547 49 191 0.0 0.0 0.00 0.00 0.00 52 1010.7
20260506073040 51 191 0.0 0.0 0.00 0.00 0.00 58 1010.4
20260506071539 52 191 0.0 0.0 0.00 0.00 0.00 57 1010.4
20260506061533 54 191 0.0 0.0 0.00 0.00 0.00 59 1010.0
20260506044530 59 191 0.0 0.0 0.00 0.00 0.00 55 1009.1
20260506043028 60 191 0.0 0.0 0.00 0.00 0.00 53 1009.1
20260506041527 62 191 0.0 0.0 0.00 0.00 0.00 53 1008.8
20260506040027 63 191 0.0 0.0 0.00 0.00 0.00 50 1008.6
20260506034527 65 191 0.0 0.0 0.00 0.00 0.00 49 1008.5
20260506033026 67 191 0.0 0.0 0.00 0.00 0.00 46 1008.4
20260506031526 68 191 0.0 0.0 0.00 0.00 0.00 42 1008.2
20260506030031 71 191 0.0 0.0 0.00 0.00 0.00 38 1008.1
20260506024540 73 191 0.0 0.0 0.00 0.00 0.00 36 1007.9
20260506023024 75 191 0.0 0.0 0.00 0.00 0.00 33 1008.0
20260506021524 76 191 0.0 0.0 0.00 0.00 0.00 30 1008.0
20260506020023 77 191 0.0 0.0 0.00 0.00 0.00 29 1008.0
20260506014524 78 191 0.0 0.0 0.00 0.00 0.00 27 1008.0
20260506013022 78 191 0.0 0.0 0.00 0.00 0.00 27 1007.9
20260506011522 78 191 0.0 3.0 0.00 0.00 0.00 26 1008.1
20260506010021 77 189 0.0 4.0 0.00 0.00 0.00 26 1008.3
20260506004521 78 202 0.0 2.0 0.00 0.00 0.00 27 1008.3
20260506003020 77 223 0.0 2.0 0.00 0.00 0.00 27 1008.4
20260506001519 76 165 0.0 4.0 0.00 0.00 0.00 27 1008.6
20260506000018 76 173 0.0 0.0 0.00 0.00 0.00 26 1008.8
20260505234527 76 138 0.0 3.0 0.00 0.00 0.00 26 1009.0
20260505233020 77 342 0.0 2.0 0.00 0.00 0.00 25 1009.1
20260505231518 78 196 0.0 0.0 0.00 0.00 0.00 26 1009.1
20260505230037 78 125 0.0 5.0 0.00 0.00 0.00 24 1009.3
20260505224517 79 82 0.0 6.0 0.00 0.00 0.00 24 1009.3
20260505223014 79 207 0.0 0.0 0.00 0.00 0.00 26 1009.6
20260505221515 78 77 0.0 7.0 0.00 0.00 0.00 26 1009.7
20260505220014 78 82 0.0 6.0 0.00 0.00 0.00 27 1009.8
20260505214513 79 179 0.0 3.0 0.00 0.00 0.00 25 1009.8
20260505213011 77 316 0.0 5.0 0.00 0.00 0.00 25 1010.1
20260505211508 77 114 0.0 6.0 0.00 0.00 0.00 26 1010.3
20260505210003 76 113 0.0 4.0 0.00 0.00 0.00 27 1010.4
20260505204501 75 341 0.0 10.0 0.00 0.00 0.00 28 1010.6
20260505203106 75 276 0.0 2.0 0.00 0.00 0.00 28 1010.6
20260505201558 75 150 0.0 5.0 0.00 0.00 0.00 29 1010.8
20260505200058 75 57 0.0 0.0 0.00 0.00 0.00 30 1010.9